TimeEDT,TemperatureF,Dew PointF,Humidity,Sea Level PressureIn,VisibilityMPH,Wind Direction,Wind SpeedMPH,Gust SpeedMPH,PrecipitationIn,Events,Conditions,WindDirDegrees,DateUTC
12:13 AM,52.5,51.6,97,30.07,10.0,Calm,Calm,-,N/A,,Clear,0,2013-07-25 04:13:00
12:33 AM,51.4,50.4,96,30.06,10.0,Calm,Calm,-,N/A,,Clear,0,2013-07-25 04:33:00
12:53 AM,50.7,49.8,97,30.06,10.0,Calm,Calm,-,N/A,,Clear,0,2013-07-25 04:53:00
1:13 AM,50.9,50.0,97,30.06,10.0,Calm,Calm,-,N/A,,Clear,0,2013-07-25 05:13:00
1:33 AM,50.5,49.8,97,30.06,10.0,Calm,Calm,-,N/A,,Clear,0,2013-07-25 05:33:00
1:53 AM,50.2,49.6,98,30.06,10.0,Calm,Calm,-,N/A,,Clear,0,2013-07-25 05:53:00
2:13 AM,49.6,49.3,99,30.06,10.0,Calm,Calm,-,N/A,,Clear,0,2013-07-25 06:13:00
2:33 AM,49.1,48.4,97,30.06,10.0,Calm,Calm,-,N/A,,Clear,0,2013-07-25 06:33:00
2:53 AM,48.7,48.2,98,30.07,10.0,NW,4.6,-,N/A,,Clear,320,2013-07-25 06:53:00
3:14 AM,48.9,48.6,99,30.07,10.0,NW,3.5,-,N/A,,Clear,320,2013-07-25 07:14:00
3:33 AM,49.1,48.6,98,30.07,10.0,Calm,Calm,-,N/A,,Clear,0,2013-07-25 07:33:00
3:53 AM,48.6,48.2,99,30.07,10.0,Calm,Calm,-,N/A,,Clear,0,2013-07-25 07:53:00
4:14 AM,47.7,47.1,98,30.07,10.0,Calm,Calm,-,N/A,,Clear,0,2013-07-25 08:14:00
4:33 AM,47.3,46.9,99,30.07,10.0,Calm,Calm,-,N/A,,Clear,0,2013-07-25 08:33:00
4:53 AM,47.3,46.9,99,30.07,10.0,Calm,Calm,-,N/A,,Clear,0,2013-07-25 08:53:00
5:14 AM,46.9,46.6,99,30.08,10.0,Calm,Calm,-,N/A,,Clear,0,2013-07-25 09:14:00
5:33 AM,46.6,46.4,99,30.08,10.0,Calm,Calm,-,N/A,,Clear,0,2013-07-25 09:33:00
5:53 AM,46.4,45.9,98,30.09,10.0,Calm,Calm,-,N/A,,Clear,0,2013-07-25 09:53:00
6:13 AM,46.4,46.0,99,30.09,10.0,Calm,Calm,-,N/A,,Clear,0,2013-07-25 10:13:00
6:33 AM,46.4,45.9,98,30.09,10.0,Calm,Calm,-,N/A,,Clear,0,2013-07-25 10:33:00
6:53 AM,46.0,45.7,99,30.09,10.0,Calm,Calm,-,N/A,,Clear,0,2013-07-25 10:53:00
7:13 AM,47.7,47.3,99,30.09,10.0,Calm,Calm,-,N/A,,Clear,0,2013-07-25 11:13:00
7:33 AM,50.2,49.8,99,30.10,10.0,Calm,Calm,-,N/A,,Scattered Clouds,0,2013-07-25 11:33:00
7:53 AM,52.7,51.6,96,30.10,10.0,Calm,Calm,-,N/A,,Clear,0,2013-07-25 11:53:00
8:13 AM,55.8,52.7,89,30.11,10.0,Calm,Calm,-,N/A,,Clear,0,2013-07-25 12:13:00
8:34 AM,58.5,54.0,85,30.11,10.0,Calm,Calm,-,N/A,,Clear,0,2013-07-25 12:34:00
8:53 AM,60.8,54.3,79,30.11,10.0,Calm,Calm,-,N/A,,Clear,0,2013-07-25 12:53:00
9:13 AM,63.1,54.0,72,30.12,10.0,Calm,Calm,-,N/A,,Clear,0,2013-07-25 13:13:00
9:34 AM,64.9,53.8,67,30.12,10.0,Calm,Calm,-,N/A,,Clear,0,2013-07-25 13:34:00
9:53 AM,66.4,54.1,65,30.12,10.0,Calm,Calm,-,N/A,,Clear,0,2013-07-25 13:53:00
10:13 AM,67.6,54.3,62,30.12,10.0,South,4.6,-,N/A,,Clear,190,2013-07-25 14:13:00
10:34 AM,68.4,53.1,58,30.12,10.0,SW,4.6,-,N/A,,Clear,230,2013-07-25 14:34:00
10:53 AM,69.8,54.1,57,30.12,10.0,South,3.5,-,N/A,,Clear,190,2013-07-25 14:53:00
11:13 AM,70.0,54.0,57,30.11,10.0,Calm,Calm,-,N/A,,Clear,0,2013-07-25 15:13:00
11:34 AM,70.7,52.5,52,30.11,10.0,SW,3.5,-,N/A,,Clear,230,2013-07-25 15:34:00
11:53 AM,73.0,53.4,50,30.11,10.0,South,5.8,-,N/A,,Scattered Clouds,190,2013-07-25 15:53:00
12:13 PM,72.3,51.3,47,30.11,10.0,South,4.6,-,N/A,,Scattered Clouds,180,2013-07-25 16:13:00
12:33 PM,74.3,52.7,47,30.11,10.0,Calm,Calm,-,N/A,,Clear,0,2013-07-25 16:33:00
12:53 PM,73.4,51.3,46,30.11,10.0,SE,5.8,-,N/A,,Clear,140,2013-07-25 16:53:00
1:14 PM,74.1,51.4,45,30.11,10.0,SSE,3.5,-,N/A,,Mostly Cloudy,150,2013-07-25 17:14:00
1:33 PM,74.7,51.1,44,30.11,10.0,Calm,Calm,-,N/A,,Mostly Cloudy,0,2013-07-25 17:33:00
1:53 PM,75.4,51.6,43,30.10,10.0,SSE,4.6,-,N/A,,Mostly Cloudy,160,2013-07-25 17:53:00
2:14 PM,75.7,51.3,42,30.10,10.0,South,5.8,-,N/A,,Mostly Cloudy,190,2013-07-25 18:14:00
2:33 PM,74.7,50.4,42,30.10,10.0,ESE,3.5,-,N/A,,Scattered Clouds,110,2013-07-25 18:33:00
2:53 PM,76.1,51.6,42,30.09,10.0,South,11.5,-,N/A,,Scattered Clouds,180,2013-07-25 18:53:00
3:14 PM,76.6,50.9,40,30.08,10.0,SSW,8.1,-,N/A,,Scattered Clouds,200,2013-07-25 19:14:00
3:33 PM,76.8,50.7,40,30.08,10.0,South,6.9,-,N/A,,Scattered Clouds,190,2013-07-25 19:33:00
3:53 PM,76.5,50.9,41,30.08,10.0,South,8.1,-,N/A,,Scattered Clouds,190,2013-07-25 19:53:00
4:14 PM,76.1,50.9,41,30.07,10.0,South,4.6,-,N/A,,Scattered Clouds,180,2013-07-25 20:14:00
4:33 PM,77.0,50.5,39,30.07,10.0,South,3.5,-,N/A,,Scattered Clouds,170,2013-07-25 20:33:00
4:54 PM,77.2,51.4,41,30.07,10.0,SSW,6.9,-,N/A,,Scattered Clouds,210,2013-07-25 20:54:00
5:13 PM,77.0,51.8,41,30.07,10.0,SSW,5.8,-,N/A,,Scattered Clouds,200,2013-07-25 21:13:00
5:33 PM,77.2,50.9,40,30.07,10.0,SSW,8.1,-,N/A,,Scattered Clouds,200,2013-07-25 21:33:00
5:54 PM,77.2,51.1,40,30.06,10.0,SSE,9.2,16.1,N/A,,Scattered Clouds,160,2013-07-25 21:54:00
6:13 PM,77.2,50.9,40,30.05,10.0,SSE,5.8,-,N/A,,Clear,160,2013-07-25 22:13:00
6:29 PM,76.8,50.9,40,30.05,10.0,South,6.9,-,N/A,,Clear,190,2013-07-25 22:29:00
6:56 PM,75.2,50.0,41,30.05,10.0,South,4.6,-,N/A,,Clear,180,2013-07-25 22:56:00
7:03 PM,75.7,51.1,42,30.06,10.0,SSE,5.8,-,N/A,,Clear,160,2013-07-25 23:03:00
7:14 PM,75.6,51.1,42,30.06,10.0,SSE,5.8,-,N/A,,Clear,160,2013-07-25 23:14:00
7:33 PM,75.6,51.3,42,30.06,10.0,South,6.9,-,N/A,,Clear,170,2013-07-25 23:33:00
7:53 PM,75.4,51.1,42,30.06,10.0,SSE,5.8,-,N/A,,Clear,160,2013-07-25 23:53:00
8:13 PM,74.3,51.1,44,30.05,10.0,SSE,4.6,-,N/A,,Clear,160,2013-07-26 00:13:00
8:33 PM,72.7,51.3,47,30.05,10.0,SSE,5.8,-,N/A,,Clear,160,2013-07-26 00:33:00
8:54 PM,71.8,51.3,48,30.04,10.0,SSE,5.8,-,N/A,,Clear,150,2013-07-26 00:54:00
9:13 PM,71.1,51.4,50,30.04,10.0,SSE,5.8,-,N/A,,Clear,150,2013-07-26 01:13:00
9:33 PM,70.7,51.6,51,30.05,10.0,SSE,5.8,-,N/A,,Clear,150,2013-07-26 01:33:00
9:54 PM,70.0,51.8,52,30.05,10.0,SE,3.5,-,N/A,,Clear,140,2013-07-26 01:54:00
10:13 PM,68.9,51.8,54,30.06,10.0,SSE,3.5,-,N/A,,Clear,150,2013-07-26 02:13:00
10:33 PM,68.4,51.8,55,30.07,10.0,SSE,3.5,-,N/A,,Clear,160,2013-07-26 02:33:00
10:54 PM,63.9,53.4,69,30.06,10.0,Calm,Calm,-,N/A,,Clear,0,2013-07-26 02:54:00
11:13 PM,66.6,52.7,61,30.06,10.0,South,3.5,-,N/A,,Clear,170,2013-07-26 03:13:00
11:34 PM,66.7,51.8,59,30.07,10.0,South,3.5,-,N/A,,Clear,180,2013-07-26 03:34:00
11:54 PM,65.3,52.0,62,30.07,10.0,SSW,3.5,-,N/A,,Clear,200,2013-07-26 03:54:00